Regional Weather Roundup
Issued by NWS Burlington, VT

Home | Current Version | Previous Version | Text Only | Print | Product List | Glossary On
Versions: 1 2 3 4 5 6 7 8 9 10 11 12 13 14 15 16 17 18 19 20 21 22 23 24 25 26 27 28 29 30 31 32 33 34 35 36 37 38 39 40 41 42 43 44 45 46 47 48 49 50
000
ASUS41 KBTV 261710
RWRBTV
VERMONT REGIONAL WEATHER ROUNDUP
NATIONAL WEATHER SERVICE BURLINGTON VT
100 PM EDT THU MAY 26 2016

NOTE: "FAIR" INDICATES FEW OR NO CLOUDS BELOW 12,000 FEET WITH NO
SIGNIFICANT WEATHER AND/OR OBSTRUCTIONS TO VISIBILITY.

* THESE REPORTS ARE NOT UNDER NWS QUALITY CONTROL AND/OR DO NOT
  REPORT WEATHER SUCH AS PRECIPITATION AND FOG.

VTZ001>019-261800-
_____VERMONT_____


CITY           SKY/WX    TMP DP  RH WIND       PRES   REMARKS
BURLINGTON     PTSUNNY   77  52  41 N6        30.10F
MONTPELIER     FAIR      74  49  41 NW7       30.14F
MORRISVILLE    FAIR      74  46  36 VRB3      30.11F
ST. JOHNSBURY*   N/A     77  44  30 MISG      30.07F
LYNDONVILLE*   FAIR      73  44  36 W3        30.12F
RUTLAND*       FAIR      77  58  51 N6        30.09F
SPRINGFIELD    FAIR      80  55  42 CALM      30.06F
HIGHGATE*      FAIR      74  46  36 NE7       30.11F
NEWPORT*       FAIR      69  47  46 NE7       30.12F
BENNINGTON     FAIR      82  58  43 N8        30.09F
SUTTON*          N/A     72 N/A N/A MISG        N/A

_____LAKE CHAMPLAIN_____


CITY           SKY/WX    TMP DP  RH WIND       PRES   REMARKS
BURTON ISLAND*   N/A     66  52  59 NW1         N/A
COLCHESTER RF*   N/A     63  50  63 N13         N/A
DIAMOND ISL*     N/A     66  52  59 N10         N/A

$$

NYZ007-026>031-035-052-083-087-261800-
_____NORTHERN NEW YORK_____


CITY           SKY/WX    TMP DP  RH WIND       PRES   REMARKS
PLATTSBURGH    MOSUNNY   72  45  37 E6        30.11F
SARANAC LAKE   MOSUNNY   77  49  37 E9        30.08F
MASSENA        SUNNY     75  49  39 NE13      30.07F
OGDENSBURG*    SUNNY     77  55  47 N10       30.04F
POTSDAM*       SUNNY     77  61  57 NE9       30.05F
WATERTOWN      CLOUDY    80  56  43 W8        30.03F
ALBANY         PTSUNNY   83  59  44 CALM      30.07F
GLENS FALLS    SUNNY     78  55  44 CALM      30.07F

$$
NHZ002-005-011-261800-
_____NEW HAMPSHIRE_____


CITY           SKY/WX    TMP DP  RH WIND       PRES   REMARKS
LEBANON        MOSUNNY   79  57  46 CALM      30.07F
MT WASHINGTON  PTSUNNY   54  21  28 NW14        N/A
PLYMOUTH       FAIR      78  48  34 W8        30.07F
WHITEFIELD     SUNNY     76  44  32 NW9       30.09F

$$

_____REGIONAL QUEBEC LOCATIONS_____


CITY           SKY/WX    TMP DP  RH WIND       PRES   REMARKS
MONTREAL       PTSUNNY   72  43  35 SE7       30.10F
QUEBEC CITY    MOSUNNY   66  45  45 VRB8      30.11F
SHERBROOKE     SUNNY     70  36  28 VRB5      30.11F

_____REGIONAL ONTARIO LOCATIONS_____


CITY           SKY/WX    TMP DP  RH WIND       PRES   REMARKS
OTTAWA         PTSUNNY   75  50  41 E10G21    30.07F

______KEY______
VSB  - VISIBILITY IN MILES
WCI  - WIND CHILL INDEX
HX   - HEAT INDEX
$$
NNNN




USA.gov is the U.S. government's official web portal to all federal, state and local government web resources and services.